Retour au catalogue

STARLINK-5001

ActifCommunicationsVLEO
NORAD 53924·PAYLOAD·🇺🇸 United States

Lancé Sep 24, 2022 depuis Cape Canaveral Space Force Station

Loading…

Prochains Passages (prochaines 24 heures)

TLE

FraisSource: CelesTrak SupGP

Époque: Sep 15, 2026, 01:27 UTC

1 53924C 22119AQ  26258.06090278 -.00007870  00000+0 -29683-3 0  2585
2 53924  53.1595 156.1268 0001631  84.5335  32.3835 15.26516731    13

Suivez STARLINK-5001 en temps réel avec AllMySat

Download on the App Store